107  
ASUS45 KGGW 230615  
RWRGGW  
HOURLY REGIONAL WEATHER ROUNDUP FOR NORTHEAST MONTANA  
NATIONAL WEATHER SERVICE GLASGOW MONTANA  
1200 AM MDT SUN SEP 23 2018  
 
NOTE: "FAIR" INDICATES FEW OR NO CLOUDS BELOW 12,000 FEET WITH NO  
SIGNIFICANT WEATHER AND/OR S TO VISISBILITY.  
 
NORTHEAST MONTANA  
 
 
CITY SKY/WX TMP DP RH WIND PRES REMARKS
 
GLASGOW CLOUDY 43 39 86 E14 29.98F  
6HR MIN TEMP: 43; 6HR MAX TEMP: 51;  
 
WOLF POINT CLOUDY 42 39 89 NE18G24 30.04R  
JORDAN N/A 44 50 100 NE13 29.96S  
WINNETT N/A 50 46 86 SW5 N/A  
SIDNEY CLOUDY 42 40 92 NE13 29.99F  
GLENDIVE CLOUDY 45 43 93 NE14 29.96R  
MALTA N/A 44 43 96 SW3G12 N/A  
 
FORT PECK REPORTS  
 
 
CITY SKY/WX TMP DP RH WIND PRES REMARKS
 
FORT PECK N/A 42 42 100 E17G25 N/A  
THE PINES N/A 42 38 85 NE9G20 N/A  
 
SOUTHEAST MONTANA  
 
 
CITY SKY/WX TMP DP RH WIND PRES REMARKS
 
BILLINGS PTCLDY 56 43 61 N14 29.88S  
MILES CITY PTCLDY 51 48 89 NE20 29.87R  
BAKER CLOUDY 48 46 93 E14 29.92S  
LIVINGSTON PTCLDY 57 34 41 SE10 29.97R  
 
CENTRAL MONTANA  
 
 
CITY SKY/WX TMP DP RH WIND PRES REMARKS
 
HAVRE CLOUDY 47 44 90 NE10 29.97R  
LEWISTOWN CLOUDY 48 46 93 E3 29.98R  
GREAT FALLS CLOUDY 48 43 82 NE10 29.93F  
CUT BANK CLOUDY 38 36 92 CALM 29.98S  
HELENA CLOUDY 59 38 45 SW3 29.96F  
BUTTE MOCLDY 50 36 58 CALM 30.03R  
BOZEMAN MOCLDY 54 35 48 CALM 29.96R  
 
WESTERN MONTANA  
 
 
CITY SKY/WX TMP DP RH WIND PRES REMARKS
 
MISSOULA CLOUDY 57 39 51 CALM 29.97F  
KALISPELL NOT AVBL  
 
NORTH DAKOTA  
 
 
CITY SKY/WX TMP DP RH WIND PRES REMARKS
 
WILLISTON CLOUDY 39 35 86 E16 30.04R  
DICKINSON FOG 41 40 96 NE12 29.95S VSB 1/4  
MINOT CLOUDY 38 35 89 NE17G23 30.06F  
BISMARCK CLOUDY 44 42 93 NE15 29.98S  
 
SOUTHERN SASKATCHEWAN  
 
 
CITY SKY/WX TMP DP RH WIND PRES REMARKS
 
REGINA NOT AVBL  
ESTEVAN CLOUDY 32 32 100 E14G24 30.10R FOG  
SWIFT CURRENT FRZ RAIN 34 34 100 SE15G23 30.02R VSB 1  
 
 
 
CLICK HERE TO GO TO PREVIOUS BULLETINS.

The Nexlab MT Page Main Text Page